User: anonymous   Login
Location: Killarney Provincial Park Observatory
(46.0124°N, 81.4000°W)
Time: 16:16:40
(UTC-04:00)
Language:

Iridium 22 - Orbit

View from above orbital plane
View from above orbital plane
View from above satellite
View from above satellite

Ground track
Ground track

The orbit data is extracted from the following two-line orbital elements,

1 24907U 97043E   15149.55195536  .00000248  00000-0  81634-4 0  9994
2 24907 086.3998 209.3578 0002316 093.8499 024.5325 14.34217796930383
Epoch (UTC): 29 May 2015 13:14:48
Eccentricity: 0.0002316
inclination: 86.3998°
perigee height: 776 km
apogee height: 779 km
right ascension of ascending node: 209.3578°
argument of perigee: 93.8499°
revolutions per day: 14.34217796
mean anomaly at epoch: 24.5325°
orbit number at epoch: 93038

The dashed part of the orbit path shows where the satellite is in the earth's shadow,  

DLR